Weather History for Newport Airport, OR

Change the Weather History Date:

Friday, April 5, 2013

  Actual Average Record
Temperature  
Mean Temperature 50 °F -  
Max Temperature 51 °F 51 °F 68 °F (2007)
Min Temperature 50 °F 40 °F 33 °F (2012)
Degree Days  
Heating Degree Days 14    
Moisture  
Dew Point 50 °F    
Average Humidity 98    
Maximum Humidity 100    
Minimum Humidity 94    
Precipitation  
Precipitation 0.34 in - - ()
Sea Level Pressure  
Sea Level Pressure 29.93 in    
Wind  
Wind Speed 21 mph (SSW)    
Max Wind Speed 34 mph    
Max Gust Speed 47 mph    
Visibility 5 miles    
Events Rain    
Averages and records for this station are not official NWS values.
T = Trace of Precipitation, MM = Missing Value Source: NWS Daily Summary

Daily Weather History Graph

Daily Weather History Graph

Search for Another Location

Airport:

Trip Planner

Search our weather history database for the weather conditions in past years. The results will help you decide how hot, cold, wet, or windy it might be!

Date:

Astronomy

Apr. 05, 2013 Rise Set
Actual Time 6:49 AM PDT 7:49 PM PDT
Civil Twilight 6:19 AM PDT 8:18 PM PDT
Nautical Twilight 5:44 AM PDT 8:54 PM PDT
Astronomical Twilight 5:06 AM PDT 9:31 PM PDT
Moon 4:11 AM PDT (4/5) 3:09 PM PDT (4/5)
Length of Visible Light 13h 59m
Length of Day
12h 59m
Waning Crescent, 22% of the Moon is Illuminated
Apr 5
Waning Crescent
Apr 10
New
Apr 18
First Quarter
Apr 25
Full
May 2
Last Quarter

Hourly Weather History & Observations

Time (PDT) Temp. Dew Point Humidity Pressure Visibility Wind Dir Wind Speed Gust Speed Precip Events Conditions
12:15 AM 50.0 °F 50.0 °F 100% 29.85 in 4.0 mi SSW 19.6 mph 31.1 mph N/A   Overcast
12:35 AM 50.0 °F 50.0 °F 100% 29.86 in 2.0 mi SSW 20.7 mph 31.1 mph N/A Rain Light Rain
12:55 AM 50.0 °F 50.0 °F 100% 29.87 in 3.0 mi SSW 20.7 mph - N/A   Overcast
1:15 AM 50.0 °F 50.0 °F 100% 29.87 in 2.0 mi SSW 19.6 mph 26.5 mph N/A Rain Rain
1:35 AM 50.0 °F 50.0 °F 100% 29.87 in 5.0 mi South 21.9 mph 32.2 mph N/A Rain Light Rain
1:55 AM 50.0 °F 50.0 °F 100% 29.88 in 7.0 mi South 23.0 mph 29.9 mph N/A   Overcast
2:15 AM 50.0 °F 50.0 °F 100% 29.88 in 7.0 mi SSW 18.4 mph 28.8 mph N/A   Overcast
2:35 AM 50.0 °F 50.0 °F 100% 29.89 in 3.0 mi SSW 21.9 mph 29.9 mph N/A Rain Light Rain
2:55 AM 50.0 °F 50.0 °F 100% 29.89 in 3.0 mi SSW 19.6 mph 29.9 mph N/A Rain Light Rain
3:15 AM 50.0 °F 50.0 °F 100% 29.90 in 5.0 mi SSW 17.3 mph 29.9 mph N/A   Overcast
3:35 AM 50.0 °F 50.0 °F 100% 29.89 in 5.0 mi SSW 18.4 mph 27.6 mph N/A   Overcast
3:55 AM 50.0 °F 50.0 °F 100% 29.90 in 7.0 mi SSW 18.4 mph 27.6 mph N/A   Overcast
4:15 AM 50.0 °F 50.0 °F 100% 29.91 in 5.0 mi SSW 17.3 mph 25.3 mph N/A   Overcast
4:35 AM 50.0 °F 50.0 °F 100% 29.92 in 5.0 mi South 18.4 mph 27.6 mph N/A   Overcast
4:55 AM 50.0 °F 50.0 °F 100% 29.91 in 5.0 mi SSW 17.3 mph 25.3 mph N/A   Overcast
5:15 AM 50.0 °F 50.0 °F 100% 29.91 in 4.0 mi SSW 17.3 mph 25.3 mph N/A   Overcast
5:35 AM 50.0 °F 50.0 °F 100% 29.91 in 5.0 mi South 17.3 mph 26.5 mph N/A   Overcast
5:55 AM 50.0 °F 50.0 °F 100% 29.91 in 5.0 mi SSW 16.1 mph 24.2 mph N/A   Overcast
6:15 AM 50.0 °F 50.0 °F 100% 29.92 in 4.0 mi SSW 18.4 mph 24.2 mph N/A   Overcast
6:35 AM 50.0 °F 50.0 °F 100% 29.92 in 2.5 mi South 17.3 mph 27.6 mph N/A Rain Rain
6:55 AM 50.0 °F 50.0 °F 100% 29.92 in 5.0 mi SSW 19.6 mph 25.3 mph N/A   Overcast
7:15 AM 50.0 °F 50.0 °F 100% 29.92 in 7.0 mi South 18.4 mph 25.3 mph N/A   Overcast
7:35 AM 50.0 °F 50.0 °F 100% 29.93 in 10.0 mi South 18.4 mph 25.3 mph N/A   Overcast
7:55 AM 50.0 °F 50.0 °F 100% 29.93 in 5.0 mi SSW 18.4 mph - N/A   Overcast
8:15 AM 50.0 °F 50.0 °F 100% 29.93 in 7.0 mi SSW 19.6 mph 26.5 mph N/A   Overcast
8:35 AM 50.0 °F 50.0 °F 100% 29.94 in 7.0 mi SSW 16.1 mph 23.0 mph N/A   Overcast
8:55 AM 50.0 °F 50.0 °F 100% 29.93 in 7.0 mi South 17.3 mph 25.3 mph N/A   Overcast
9:15 AM 50.0 °F 50.0 °F 100% 29.97 in 1.8 mi SSW 18.4 mph 27.6 mph N/A Rain Light Rain
9:35 AM 50.0 °F 50.0 °F 100% 29.97 in 3.0 mi SSW 19.6 mph 27.6 mph N/A   Overcast
9:55 AM 50.0 °F 50.0 °F 100% 30.03 in 5.0 mi South 20.7 mph 27.6 mph N/A   Overcast
10:15 AM 51.8 °F 50.0 °F 94% 30.03 in 7.0 mi SSW 20.7 mph 26.5 mph N/A   Overcast
10:35 AM 50.0 °F 50.0 °F 100% 29.98 in 7.0 mi South 18.4 mph 29.9 mph N/A   Overcast
10:55 AM 51.8 °F 50.0 °F 94% 30.04 in 7.0 mi SSW 19.6 mph 26.5 mph N/A   Overcast
11:15 AM 51.8 °F 50.0 °F 94% 30.01 in 7.0 mi South 19.6 mph 32.2 mph N/A   Overcast
11:35 AM 50.0 °F 50.0 °F 100% 29.97 in 1.2 mi SSW 21.9 mph 27.6 mph 0.01 in Rain Light Rain
11:55 AM 50.0 °F 50.0 °F 100% 29.98 in 3.0 mi South 16.1 mph 23.0 mph 0.01 in   Overcast
12:15 PM 51.8 °F 50.0 °F 94% 30.07 in 7.0 mi South 21.9 mph 33.4 mph N/A   Overcast
12:35 PM 51.8 °F 50.0 °F 94% 30.01 in 7.0 mi South 24.2 mph 31.1 mph N/A   Overcast
12:55 PM 51.8 °F 50.0 °F 94% 29.96 in 2.5 mi SSW 24.2 mph 34.5 mph N/A   Overcast
1:15 PM 51.8 °F 50.0 °F 94% 30.00 in 5.0 mi South 23.0 mph 29.9 mph N/A Rain Light Rain
1:35 PM 51.8 °F 50.0 °F 94% 30.00 in 5.0 mi South 21.9 mph 31.1 mph N/A Rain Light Rain
1:55 PM 50.0 °F 50.0 °F 100% 30.00 in 4.0 mi SSW 23.0 mph 31.1 mph 0.02 in Rain Light Rain
2:15 PM 50.0 °F 50.0 °F 100% 30.00 in 3.0 mi South 26.5 mph 35.7 mph 0.02 in Rain Rain
2:35 PM 50.0 °F 50.0 °F 100% 30.00 in 3.0 mi South 21.9 mph 31.1 mph 0.04 in Rain Light Rain
2:55 PM 50.0 °F 50.0 °F 100% 30.00 in 3.0 mi SSW 21.9 mph 33.4 mph 0.06 in Rain Light Rain
3:15 PM 50.0 °F 50.0 °F 100% 29.99 in 2.0 mi SSW 20.7 mph 28.8 mph 0.04 in Rain Rain
3:35 PM 50.0 °F 50.0 °F 100% 29.98 in 2.0 mi SSW 17.3 mph 25.3 mph 0.08 in Rain Rain
3:55 PM 50.0 °F 50.0 °F 100% 29.98 in 3.0 mi South 21.9 mph 31.1 mph 0.12 in Rain Light Rain
4:15 PM 50.0 °F 50.0 °F 100% 29.98 in 5.0 mi South 23.0 mph 32.2 mph 0.01 in Rain Light Rain
4:35 PM 50.0 °F 50.0 °F 100% 29.97 in 4.0 mi South 20.7 mph 35.7 mph 0.01 in Rain Light Rain
4:55 PM 50.0 °F 50.0 °F 100% 29.96 in 5.0 mi South 20.7 mph 29.9 mph 0.02 in Rain Rain
5:15 PM 50.0 °F 50.0 °F 100% 29.96 in 5.0 mi South 23.0 mph 33.4 mph N/A   Drizzle
5:35 PM 50.0 °F 50.0 °F 100% 29.94 in 5.0 mi South 18.4 mph 29.9 mph N/A   Drizzle
5:55 PM 50.0 °F 50.0 °F 100% 29.94 in 10.0 mi South 15.0 mph 20.7 mph N/A   Drizzle
6:15 PM 51.8 °F 50.0 °F 94% 29.93 in 10.0 mi South 10.4 mph 16.1 mph N/A   Light Drizzle
6:35 PM 51.8 °F 50.0 °F 94% 29.93 in 10.0 mi South 16.1 mph 21.9 mph N/A   Drizzle
6:55 PM 51.8 °F 50.0 °F 94% 29.91 in 7.0 mi South 18.4 mph 26.5 mph N/A   Drizzle
7:15 PM 51.8 °F 50.0 °F 94% 29.90 in 4.0 mi South 16.1 mph 23.0 mph 0.01 in Rain Light Rain
7:35 PM 51.8 °F 50.0 °F 94% 29.89 in 7.0 mi South 29.9 mph 39.1 mph 0.01 in Rain Light Rain
7:55 PM 51.8 °F 50.0 °F 94% 29.88 in 5.0 mi South 26.5 mph 36.8 mph 0.02 in Rain Light Rain
8:15 PM 51.8 °F 50.0 °F 94% 29.87 in 5.0 mi South 27.6 mph 40.3 mph 0.01 in Rain Light Rain
8:35 PM 51.8 °F 50.0 °F 94% 29.87 in 3.0 mi South 25.3 mph 39.1 mph 0.02 in Rain Rain
8:55 PM 51.8 °F 50.0 °F 94% 29.86 in 7.0 mi South 26.5 mph 39.1 mph 0.03 in Rain Light Rain
9:15 PM 51.8 °F 50.0 °F 94% 29.86 in 5.0 mi South 25.3 mph 36.8 mph N/A Rain Rain
9:35 PM 51.8 °F 50.0 °F 94% 29.87 in 4.0 mi South 28.8 mph 40.3 mph 0.01 in Rain Light Rain
9:55 PM 51.8 °F 50.0 °F 94% 29.85 in 4.0 mi SSW 34.5 mph 44.9 mph 0.03 in Rain Rain
10:15 PM 50.0 °F 50.0 °F 100% 29.84 in 2.5 mi South 34.5 mph 43.7 mph 0.02 in Rain Rain
10:35 PM 50.0 °F 50.0 °F 100% 29.84 in 3.0 mi SSW 33.4 mph 47.2 mph 0.03 in Rain Light Rain
10:55 PM 50.0 °F 50.0 °F 100% 29.85 in 3.0 mi SW 28.8 mph 38.0 mph 0.03 in Rain Light Rain
11:15 PM 50.0 °F 50.0 °F 100% 29.85 in 4.0 mi SSW 27.6 mph 40.3 mph N/A   Drizzle
11:35 PM 50.0 °F 50.0 °F 100% 29.85 in 4.0 mi SSW 27.6 mph 35.7 mph N/A   Overcast
11:55 PM 50.0 °F 50.0 °F 100% 29.85 in 4.0 mi SSW 24.2 mph 32.2 mph N/A Rain Light Rain